User: anonymous   Login
Location: Morlupo
(42.1333°N, 12.5000°E)
Time: 09:59:56
(UTC+00:00)
Language:

SPOT 3 Rocket - Orbit

View from above orbital plane
View from above orbital plane
View from above satellite
View from above satellite

Ground track
Ground track

The orbit data is extracted from the following two-line orbital elements,

1 22830U 93061H   20336.85040083  .00000025  00000-0  26568-4 0  9994
2 22830  98.7438  27.4170 0010888 186.2326 173.8722 14.31461362418778
Epoch (UTC): 01 December 2020 20:24:34
Eccentricity: 0.0010888
inclination: 98.7438°
perigee height: 779 km
apogee height: 794 km
right ascension of ascending node: 27.4170°
argument of perigee: 186.2326°
revolutions per day: 14.31461362
mean anomaly at epoch: 173.8722°
orbit number at epoch: 41877

The dashed part of the orbit path shows where the satellite is in the earth's shadow,  

DLR